Weather History for Culiacan, Mexico

Change the Weather History Date:

Sunday, February 17, 2013

  Actual Average Record
Temperature  
Mean Temperature 69 °F -  
Max Temperature 87 °F 83 °F 94 °F (2014)
Min Temperature 51 °F 54 °F 48 °F (1999)
Cooling Degree Days 4    
Growing Degree Days 19 (Base 50)    
Moisture  
Dew Point 56 °F    
Average Humidity 61    
Maximum Humidity 86    
Minimum Humidity 15    
Precipitation  
Precipitation 0.00 in - - ()
Sea Level Pressure  
Sea Level Pressure 29.97 in    
Wind  
Wind Speed 2 mph ()    
Max Wind Speed 12 mph    
Max Gust Speed -    
Visibility 9.3 miles    
Events      
Averages and records for this station are not official NWS values.
T = Trace of Precipitation, MM = Missing Value Source: Averaged Metar Reports

Daily Weather History Graph

Daily Weather History Graph

Search for Another Location

Airport:

Trip Planner

Search our weather history database for the weather conditions in past years. The results will help you decide how hot, cold, wet, or windy it might be!

Date:

Astronomy

Feb. 17, 2013 Rise Set
Actual Time 6:42 AM MST 6:05 PM MST
Civil Twilight 6:19 AM MST 6:29 PM MST
Nautical Twilight 5:52 AM MST 6:55 PM MST
Astronomical Twilight 5:25 AM MST 7:22 PM MST
Moon 11:26 AM MST (2/17) 12:16 AM MST (2/17)
Length of Visible Light 12h 10m
Length of Day
11h 23m
Waxing Crescent, 49% of the Moon is Illuminated
Feb 17
Waxing Crescent
Feb 17
First Quarter
Feb 25
Full
Mar 4
Last Quarter
Mar 11
New

Hourly Weather History & Observations

Time (MST) Temp. Heat Index Dew Point Humidity Pressure Visibility Wind Dir Wind Speed Gust Speed Precip Events Conditions
1:40 AM 53 °F - 48 °F 78% 30.00 in 6 mi SW 2.2 mph - -  
4:40 AM 51 °F - 48 °F 86% 29.99 in 6 mi SW 2.2 mph - -  
5:54 AM 57.2 °F - 51.8 °F 82% 29.94 in 10.0 mi Calm Calm - N/A   Scattered Clouds
6:45 AM 55.4 °F - 50.0 °F 82% 29.96 in 10.0 mi Calm Calm - N/A   Scattered Clouds
7:40 AM 53 °F - 48 °F 78% 30.01 in 10 mi SW 2.2 mph - -   Haze
7:40 AM 60.8 °F - 50.0 °F 68% 29.97 in 10.0 mi Calm Calm - N/A   Scattered Clouds
8:41 AM 69.8 °F - 48.2 °F 46% 29.99 in 10.0 mi Calm Calm - N/A   Scattered Clouds
9:45 AM 75.2 °F - 48.2 °F 38% 30.00 in 10.0 mi Calm Calm - N/A   Scattered Clouds
10:45 AM 77.0 °F - 57.2 °F 50% 29.98 in 10.0 mi East 5.8 mph - N/A   Scattered Clouds
11:44 AM 84.2 °F 83.5 °F 57.2 °F 40% 29.99 in 10.0 mi Calm Calm - N/A   Scattered Clouds
12:44 PM 82.4 °F 85.4 °F 68.0 °F 62% 29.97 in 10.0 mi West 11.5 mph - N/A   Scattered Clouds
1:41 PM 84.2 °F 86.6 °F 66.2 °F 55% 29.95 in 10.0 mi WSW 6.9 mph - N/A   Mostly Cloudy
1:48 PM 85 °F - 44 °F 15% 29.99 in 10 mi SW 2.2 mph - -   Haze
2:42 PM 86.0 °F 88.2 °F 66.2 °F 51% 29.93 in 10.0 mi West 9.2 mph - N/A   Mostly Cloudy
3:40 PM 86.0 °F 88.2 °F 66.2 °F 51% 29.93 in 10.0 mi Calm Calm - N/A   Mostly Cloudy
4:36 PM 73 °F - 58 °F 50% 29.99 in 10 mi WSW 4.5 mph - -   Haze
4:41 PM 86.0 °F 88.2 °F 66.2 °F 51% 29.90 in 10.0 mi SW 6.9 mph - N/A   Mostly Cloudy
5:40 PM 77.0 °F - 60.8 °F 57% 29.92 in 10.0 mi Calm Calm - N/A   Mostly Cloudy
6:50 PM 73.4 °F - 59.0 °F 61% 29.93 in 10.0 mi Calm Calm - N/A   Mostly Cloudy
7:42 PM 69.8 °F - 59.0 °F 68% 29.95 in 10.0 mi Calm Calm - N/A   Mostly Cloudy
7:45 PM 67 °F - 56 °F 59% 30.02 in 6 mi Calm Calm - -  
8:40 PM 68.0 °F - 59.0 °F 73% 29.97 in 10.0 mi Calm Calm - N/A   Mostly Cloudy
9:41 PM 66.2 °F - 60.8 °F 83% 29.98 in 10.0 mi Calm Calm - N/A   Mostly Cloudy
10:40 PM 59 °F - 55 °F 82% 30.05 in 6 mi Calm Calm - -